Regional Weather Roundup
Issued by NWS

Home | Current Version | Previous Version | Text Only | Print | Product List | Glossary On
Versions: 1 2 3 4 5 6 7 8 9 10 11 12 13 14 15 16 17 18 19 20 21 22 23 24 25 26 27 28 29 30 31 32 33 34 35 36 37 38 39 40 41 42 43 44 45 46 47 48 49 50
000
ASUS43 KDMX 190201
RWRIA

WEATHER ROUNDUP FOR IOWA
NATIONAL WEATHER SERVICE DES MOINES IA
900 PM CDT WED APR 18 2018

NOTE: "FAIR" INDICATES FEW OR NO CLOUDS BELOW 12,000 FEET WITH NO
SIGNIFICANT WEATHER AND/OR OBSTRUCTIONS TO VISIBILITY.

* - THESE STATIONS ARE NOT NWS STATIONS...THUS NOT UNDER NWS
QUALITY CONTROL.  THEY ALSO DO NOT REPORT WEATHER SUCH
AS PRECIPITATION OR FOG.

IAZ001>003-012>014-020>022-031>034-043>046-190300-
   NORTHWEST IOWA

CITY           SKY/WX    TMP DP  RH WIND       PRES   REMARKS
CARROLL *      CLOUDY    34  30  86 N14       30.15R WCI  24
CHEROKEE *     CLOUDY    32  31  96 NW7       30.18R WCI  26
DENISON *      CLOUDY    34  32  93 NW8       30.18R WCI  27
LE MARS *      CLOUDY    34  32  93 N8        30.19R WCI  27
ORANGE CITY *  FLURRIES  34  34 100 NW8       30.18R WCI  27
SHELDON *      CLOUDY    32  32 100 NW9       30.16R WCI  24
SIOUX CITY     CLOUDY    35  31  85 N12       30.19R WCI  27
SPENCER        CLOUDY    33  29  85 NW9       30.16R WCI  25
STORM LAKE *   CLOUDY    32  28  86 N9        30.16R WCI  24
$$

IAZ055>058-069>071-079>083-090>094-190300-
   SOUTHWEST IOWA

CITY           SKY/WX    TMP DP  RH WIND       PRES   REMARKS
ATLANTIC *     CLOUDY    36  34  93 N9        30.17R WCI  29
AUDUBON *      CLOUDY    34  30  86 NW9       30.16R WCI  26
CLARINDA *     CLOUDY    37  30  75 NW8       30.20R WCI  31
COUNCIL BLFS * CLOUDY    37  37 100 NW14G20   30.17R WCI  29
CRESTON *      CLOUDY    34  30  86 NW14      30.15R WCI  24
HARLAN  *      CLOUDY    34  34 100 N10       30.20R WCI  26
LAMONI         CLOUDY    35  27  72 NW14      30.14R WCI  26
RED OAK *      CLOUDY    36  34  93 NW10      30.18R WCI  28
SHENANDOAH *   CLOUDY    39  32  75 MISG      30.19S
$$

IAZ047>049-059>061-072>074-084-190300-
   CENTRAL IOWA

CITY           SKY/WX    TMP DP  RH WIND       PRES   REMARKS
AMES           CLOUDY    32  28  85 NW12      30.13R WCI  23
ANKENY *       CLOUDY    34  28  80 NW12      30.15R WCI  25
BOONE *        CLOUDY    32  28  86 MISG      30.12R
CHARITON *     CLOUDY    34  28  80 NW15G24   30.12R WCI  24
DES MOINES     MOCLDY    34  27  75 NW13      30.13R WCI  25
GRINNELL*      CLOUDY    31  29  91 NW10      30.10R WCI  22
KNOXVILLE *    CLOUDY    34  28  80 NW13G18   30.11R WCI  25
MARSHALLTOWN   MOCLDY    31  28  89 NW14      30.10R WCI  21
NEWTON *       CLOUDY    32  30  93 NW10G16   30.11R WCI  24
PELLA *        CLOUDY    33  29  86 NW12      30.12R WCI  24
$$

IAZ004>006-015-016-023>025-035-036-190300-
   NORTH CENTRAL IOWA

CITY           SKY/WX    TMP DP  RH WIND       PRES   REMARKS
ALGONA *       MOCLDY    28  28 100 NW9       30.13R WCI  20
CLARION *      CLOUDY    30  28  93 NW14      30.12R WCI  20
ESTHERVILLE    CLOUDY    28  26  92 NW12      30.14R WCI  18
FORT DODGE *   CLOUDY    31  28  89 NW6       30.15R WCI  25
MASON CITY     CLOUDY    31  29  92 NW12      30.11R WCI  22
FOREST CITY *  CLOUDY    32  32 100 NW12      30.12R WCI  23
IOWA FALLS *   CLOUDY    32  30  93 NW10      30.11R WCI  23
$$

IAZ007>011-017>019-026>030-037>042-050>054-066-190300-
   NORTHEAST IOWA

CITY           SKY/WX    TMP DP  RH WIND       PRES   REMARKS
CEDAR RAPIDS   FLURRIES  32  31  96 NW15      30.05R WCI  22
CHARLES CITY * CLOUDY    28  28 100 NW8       30.09R WCI  20
CLINTON *      FLURRIES  31  30  96 NW14      30.02R WCI  21
DECORAH *      LGT SNOW  32  32 100 NW8       30.04R WCI  25
DUBUQUE        LGT SNOW  30  27  88 N12       30.01R FOG     WCI  20
MONTICELLO *   FLURRIES  32  30  93 NW10      30.04R WCI  24
OELWEIN *      FLURRIES  30  30 100 NW13      30.07R WCI  20
WATERLOO       MOCLDY    31  30  96 NW12      30.08R WCI  22
$$

IAZ064-065-067-068-078-190300-
   EAST CENTRAL IOWA

CITY           SKY/WX    TMP DP  RH WIND       PRES   REMARKS
DAVENPORT      LGT SNOW  32  30  92 NW12      30.05R FOG     WCI  23
IOWA CITY      CLOUDY    33  29  85 NW13      30.08R WCI  24
MUSCATINE *    CLOUDY    34  30  86 NW14      30.07R WCI  24
QUAD CITIES    FLURRIES  34  31  88 NW12      30.02R WCI  25
$$

IAZ062-063-075>077-085>089-095>099-190300-
   SOUTHEAST IOWA

CITY           SKY/WX    TMP DP  RH WIND       PRES   REMARKS
BURLINGTON     CLOUDY    34  28  79 NW10G20   30.05R WCI  26
FAIRFIELD *    CLOUDY    32  28  86 NW10G17   30.08R WCI  24
FORT MADISON * CLOUDY    34  30  86 NW13      30.07R WCI  25
KEOKUK *       MOCLDY    34  28  80 NW14      30.07R WCI  24
OSKALOOSA *    CLOUDY    32  30  93 NW10      30.10R WCI  24
CENTERVILLE *  LGT RAIN  34  32  93 W13       30.12R WCI  25
OTTUMWA        LGT SNOW  33  30  88 NW13      30.10R FOG     WCI  24
WASHINGTON *   CLOUDY    32  32 100 NW12      30.09R WCI  23
$$

ABBREVIATIONS USED IN REMARKS
   TC - TEMPERATURES IN CELSIUS
  WCI - WIND CHILL INDEX
   HX - HEAT INDEX
  VSB - VISIBILITY
$$





USA.gov is the U.S. government's official web portal to all federal, state and local government web resources and services.